GEFSSE_con_cape1000_192.txt.gz
Probability
58 74 97 94 87 87 87 90 90 90 94 97 97 97 100 100 97 97 97 97 94 94 97 97 94 94 87 84 87 81 81 84 74 74 77 84 84 84 87 87 81 52 84
68 87 100 100 100 100 100 100 97 97 97 100 100 100 100 97 90 90 94 94 90 87 90 97 97 81 84 84 81 81 81 77 81 81 77 77 77 77 77 87 77 61 81
74 90 100 100 100 100 100 100 100 100 100 100 94 97 97 97 94 94 94 87 87 90 94 94 90 81 77 77 81 71 71 68 74 74 61 39 61 84 81 87 94 84 84
71 90 100 100 100 100 100 100 97 100 100 97 97 97 90 94 97 94 94 90 90 94 90 84 77 68 68 77 81 74 74 77 65 52 6 23 35 77 84 84 84 84 81
61 90 100 100 100 100 100 97 100 100 100 100 94 94 94 90 94 94 94 90 90 87 87 77 74 74 68 71 77 77 77 68 61 19 6 13 32 68 77 84 84 77 77
77 97 100 100 100 100 100 97 100 100 100 97 97 100 100 100 97 97 94 94 87 90 87 74 65 61 65 71 61 61 58 58 26 10 13 23 39 71 77 81 84 81 74
74 97 100 100 100 100 100 97 100 100 100 100 100 97 100 97 100 100 97 94 87 84 71 77 65 58 65 58 52 48 61 48 6 3 13 19 52 81 81 81 84 81 77
74 94 100 100 100 100 100 100 97 100 97 94 90 90 97 97 94 94 94 90 84 71 71 84 58 61 58 58 61 61 58 48 13 10 13 29 71 81 74 71 74 81 81
74 94 100 100 100 100 100 100 100 97 97 90 90 94 97 94 94 94 90 90 81 71 74 71 52 52 55 65 68 71 68 65 6 10 13 26 77 84 77 74 74 77 77
65 74 71 71 84 90 97 100 100 100 100 97 94 90 94 90 90 87 97 87 74 71 71 58 58 58 65 65 65 65 68 55 6 3 10 42 87 77 74 68 71 77 77
55 55 61 68 61 68 71 100 94 90 94 94 90 94 81 48 52 71 81 81 68 68 68 61 52 52 55 52 65 68 42 3 0 6 13 74 87 81 74 71 71 74 71
42 42 42 45 52 52 61 65 65 65 65 52 52 55 35 19 16 45 77 77 68 65 55 65 61 58 45 16 13 32 6 6 3 0 19 74 90 81 81 68 65 55 55
23 42 39 39 45 39 42 42 39 39 35 32 29 32 19 16 16 13 16 52 45 45 26 29 39 26 23 10 3 0 6 6 0 0 26 84 84 87 71 65 65 65 55
19 26 39 23 26 29 26 39 32 35 29 19 16 19 13 13 10 6 6 6 10 10 13 13 10 3 3 6 3 0 6 0 0 3 19 81 81 81 74 71 71 58 55
26 26 32 35 39 29 26 32 32 32 29 19 23 19 13 13 13 6 10 3 6 6 10 10 6 6 6 6 3 3 0 0 0 0 6 65 71 84 84 68 65 65 58
26 32 42 45 42 32 26 23 23 29 23 19 23 16 6 10 6 6 6 0 0 3 6 10 6 3 0 0 3 0 0 0 0 0 0 32 71 81 84 68 58 58 52
39 35 35 42 42 39 29 29 23 19 19 19 13 10 0 3 0 3 0 0 0 3 0 0 3 3 0 0 3 3 0 0 0 0 0 10 29 74 77 71 71 65 58
45 45 45 61 45 45 35 35 29 23 16 6 10 10 10 6 0 0 3 3 3 0 3 0 0 0 0 0 0 3 3 0 0 0 0 0 3 10 48 74 71 74 68
35 45 39 45 45 45 45 32 32 29 13 13 13 10 10 13 6 0 3 3 6 3 0 3 0 0 0 0 0 0 0 0 0 0 0 0 0 0 0 26 81 84 65
42 42 35 45 39 35 39 35 26 23 16 13 13 16 13 10 13 3 0 3 10 0 0 3 3 0 0 0 0 0 0 0 0 0 0 0 0 0 0 0 13 45 77
52 39 45 45 39 39 35 32 26 23 16 10 13 13 6 10 10 6 6 10 10 6 3 3 3 3 3 3 3 0 0 0 0 0 0 0 0 0 0 0 0 0 10
61 48 48 39 39 39 39 29 16 23 19 16 16 10 10 6 3 13 3 3 3 3 6 6 3 3 3 0 0 0 0 0 0 0 0 0 0 0 0 0 0 0 0
65 58 48 45 45 45 39 29 23 16 16 13 10 10 16 13 10 10 10 6 3 3 3 3 3 3 3 3 0 3 0 0 0 0 0 0 0 0 0 0 0 0 0
68 61 58 52 48 48 42 29 23 23 19 13 13 16 16 19 13 6 10 10 3 3 6 3 3 3 3 3 3 0 0 0 0 0 0 0 0 0 0 0 0 0 0
65 58 61 61 55 55 52 26 23 23 19 26 19 23 13 13 16 16 10 10 3 6 6 3 3 3 3 3 3 0 0 0 0 0 0 0 0 0 0 0 0 0 0
68 65 61 58 52 52 52 42 32 32 26 29 26 26 13 10 13 19 19 13 10 10 10 10 3 0 0 0 0 0 0 0 0 0 0 0 0 0 0 0 0 0 0

GEFSSE_con_cape1000_198.txt.gz
Probability
19 55 84 81 84 81 84 84 84 90 90 90 94 87 87 81 87 90 84 84 84 74 77 84 81 71 71 74 77 74 68 74 68 74 81 87 90 97 90 90 87 77 90
52 65 90 90 84 84 90 87 84 87 87 94 90 84 87 87 81 84 84 87 87 84 84 77 84 74 71 65 71 74 81 84 77 81 90 81 84 87 87 77 68 68 90
68 71 84 100 94 100 100 97 97 97 94 90 94 90 90 87 90 94 90 87 84 84 84 81 81 81 84 68 74 81 77 81 81 84 77 65 77 84 81 74 81 84 87
74 71 90 100 100 97 100 97 97 94 94 94 94 94 94 97 94 90 94 87 87 94 87 90 84 84 74 74 77 77 77 81 81 65 39 29 48 77 87 84 81 84 87
65 87 97 100 97 97 90 97 100 100 97 94 90 87 94 100 100 97 94 94 94 90 94 81 77 81 74 77 77 77 77 61 58 26 19 29 55 77 77 77 71 71 71
68 94 100 97 100 97 97 97 94 94 94 94 94 100 97 97 97 94 94 94 97 87 77 77 71 77 71 65 65 68 65 55 29 13 16 23 61 81 71 77 68 65 65
68 87 100 100 100 100 97 94 97 97 94 94 94 94 97 94 90 97 94 87 81 87 81 71 61 61 61 65 61 55 61 52 10 13 16 19 58 77 81 77 71 77 74
74 90 100 100 100 100 94 94 94 94 94 84 87 94 94 97 94 90 81 81 74 74 77 61 55 58 61 61 58 68 61 42 13 13 16 32 61 74 74 77 74 74 71
84 84 84 87 100 100 97 94 94 94 90 90 87 90 94 87 84 77 81 84 77 68 61 58 65 61 65 58 52 55 55 32 6 10 13 32 71 68 68 74 68 65 61
65 65 65 68 71 74 84 97 94 90 90 87 90 90 87 81 71 68 84 87 74 74 71 71 68 65 58 55 55 55 48 35 6 10 19 45 71 68 65 74 68 65 52
58 55 48 45 45 48 71 81 74 81 87 77 65 81 65 29 39 55 65 74 71 61 55 58 65 68 61 58 65 65 42 19 13 10 10 52 74 68 77 71 68 61 58
26 26 26 29 35 39 42 52 55 61 55 45 42 26 13 6 10 42 68 61 71 65 55 65 71 52 23 10 19 26 10 10 6 10 19 55 68 77 71 71 68 68 65
13 23 26 29 26 26 23 35 26 29 26 26 23 13 3 3 3 6 10 29 26 26 16 19 23 16 16 0 3 3 6 6 6 6 29 52 74 77 65 58 61 65 68
13 13 16 19 19 16 10 19 19 13 13 10 10 10 6 6 6 6 13 6 6 10 13 10 6 10 6 3 3 3 6 6 3 3 23 45 74 68 65 65 58 55 55
13 16 19 16 10 6 6 6 10 10 6 6 6 6 6 6 6 3 3 3 3 3 3 3 3 3 3 3 3 10 10 6 0 3 13 32 65 74 58 61 55 61 52
10 13 13 16 13 6 6 6 6 3 6 6 3 6 6 3 3 6 3 0 0 0 0 0 6 3 0 0 3 6 3 3 3 0 3 13 55 71 61 61 68 61 55
6 3 3 16 6 3 3 3 6 6 3 3 3 3 3 3 0 0 0 0 0 0 0 0 0 0 0 0 0 0 0 0 0 0 3 6 19 52 68 65 74 68 61
10 6 6 23 13 6 6 6 10 6 10 6 3 3 3 0 0 0 0 0 0 0 0 0 0 0 0 0 0 0 0 3 3 0 0 0 6 10 42 68 68 68 52
10 6 10 19 10 6 6 10 10 6 6 6 6 3 3 0 0 0 0 0 0 0 0 0 0 0 0 0 0 0 0 0 0 0 0 0 0 3 3 23 68 68 58
6 10 13 13 13 10 6 10 10 10 6 6 10 3 3 0 3 0 0 0 0 0 0 0 0 0 0 0 0 0 0 0 0 0 0 0 0 0 0 3 19 32 61
13 10 13 13 13 10 10 10 3 6 10 6 3 0 0 0 0 0 0 0 0 0 0 0 0 3 0 0 0 0 0 0 0 0 0 0 0 0 0 0 0 3 19
16 13 10 13 13 10 10 10 3 0 0 3 3 3 0 3 0 3 0 0 0 0 0 0 0 3 3 0 3 3 3 0 0 0 0 0 0 0 0 0 0 0 0
19 19 26 16 13 10 10 6 6 3 3 6 6 6 6 3 6 10 3 0 0 0 0 0 0 0 3 3 0 3 3 0 0 0 0 0 0 0 3 3 0 0 3
26 29 23 19 13 13 10 6 6 6 3 3 6 6 6 13 10 10 6 3 3 0 0 0 3 0 3 3 0 0 0 0 0 0 0 0 0 0 0 0 0 0 0
35 39 23 19 16 16 13 10 10 6 3 3 6 10 6 6 6 6 6 3 0 0 0 0 0 0 0 0 0 0 0 0 0 0 0 0 0 0 0 0 0 0 3
42 39 29 26 26 23 19 13 10 13 6 3 3 6 6 6 6 6 6 6 6 3 3 6 0 0 0 0 0 0 0 0 0 0 0 0 0 0 0 0 0 0 0

GEFSSE_con_cape1000_204.txt.gz
Probability
3 19 58 74 81 81 81 81 84 81 84 87 77 81 81 81 74 71 68 65 74 74 68 65 68 74 71 68 58 65 71 74 71 77 81 81 77 84 84 81 71 58 81
3 32 71 77 81 77 81 84 87 84 87 84 81 84 77 74 71 68 68 77 71 71 68 74 74 77 77 74 71 71 71 74 74 77 71 71 74 77 74 65 77 81 84
13 35 55 84 87 87 84 87 87 90 87 81 81 84 84 74 74 77 74 81 81 74 74 74 74 74 71 71 74 74 77 84 81 77 68 68 74 77 81 81 68 84 87
10 32 45 84 90 90 87 87 90 90 90 81 81 87 84 87 77 84 84 81 81 84 81 74 71 71 68 71 71 77 81 77 74 58 52 39 45 68 84 84 71 71 81
13 42 74 87 90 87 84 84 90 90 87 87 81 81 77 77 84 90 90 87 87 90 81 71 71 74 68 71 71 65 65 68 52 35 29 35 65 74 84 77 77 74 71
23 32 68 90 90 84 87 87 94 100 94 87 87 87 87 84 87 81 87 90 94 94 87 68 68 77 68 68 61 65 55 45 39 26 26 35 65 71 74 74 74 71 68
23 39 58 90 90 87 87 87 90 90 90 94 87 87 97 97 90 84 81 87 90 81 77 68 74 68 68 58 71 71 48 39 10 10 26 45 68 68 65 71 68 61 65
26 42 61 81 81 84 87 90 90 94 94 87 90 90 94 87 90 84 81 77 74 71 68 68 61 55 52 55 55 58 48 39 10 3 16 26 71 74 58 74 65 61 61
26 42 55 52 71 81 87 90 87 87 94 84 84 90 84 90 84 81 77 68 74 77 68 65 55 55 48 52 52 48 32 29 10 10 3 29 58 68 55 61 65 65 55
39 42 61 48 55 52 74 84 87 87 87 84 77 81 74 71 74 74 74 77 74 65 65 65 61 55 48 52 61 45 32 26 16 6 10 26 68 61 52 55 61 55 55
61 52 48 45 52 48 58 65 84 81 68 74 68 68 77 65 52 61 48 74 68 58 58 58 52 48 45 52 52 39 29 23 13 13 13 35 58 55 55 55 52 45 39
45 52 55 45 45 39 42 71 77 68 81 77 68 42 55 68 65 39 55 68 65 52 58 58 39 32 29 48 39 32 32 23 16 23 29 68 68 55 52 48 52 45 42
35 42 45 48 58 45 61 65 68 77 81 71 61 52 77 35 42 42 55 65 71 42 29 26 19 16 10 42 39 35 32 26 29 19 32 61 68 61 48 48 52 55 45
32 42 45 68 71 74 58 61 58 55 58 48 68 52 48 52 55 52 61 39 45 61 45 13 29 19 32 35 35 29 29 32 32 39 68 52 61 65 58 55 52 55 52
42 52 55 71 81 87 84 71 45 61 55 48 74 55 55 42 48 52 65 81 42 39 45 55 42 48 39 23 23 23 32 32 35 39 48 52 52 61 58 55 55 55 52
55 55 61 71 65 84 84 84 68 48 71 39 52 52 61 58 55 55 52 68 35 35 39 52 48 52 42 32 26 23 26 23 32 42 42 42 45 65 61 52 55 55 55
61 55 74 58 68 77 74 65 48 48 42 45 65 68 65 58 71 48 42 48 42 45 48 52 48 48 48 26 32 26 32 29 29 39 35 52 42 48 58 65 71 68 58
74 65 55 39 61 71 74 68 48 52 55 65 65 68 58 61 61 65 55 39 52 52 52 58 42 32 32 39 29 32 26 48 48 52 39 42 45 32 52 65 68 68 61
77 68 65 71 71 65 71 68 58 61 71 58 65 65 68 65 55 61 65 48 55 45 45 42 42 39 29 32 32 35 32 42 52 42 35 32 39 45 58 55 58 61 52
74 74 71 71 77 77 74 74 71 65 65 74 71 74 65 68 61 65 58 68 58 55 74 68 65 68 48 45 16 23 29 26 39 42 32 29 32 39 48 39 52 55 58
65 74 68 71 77 84 77 68 74 71 71 61 65 65 65 61 68 74 45 71 81 65 65 52 58 52 45 45 29 23 23 23 26 42 32 26 23 35 45 52 65 61 65
68 71 77 77 74 74 81 74 74 74 65 68 61 68 65 58 61 45 68 55 61 81 87 81 84 61 35 42 42 32 23 26 39 16 29 32 23 26 32 32 48 55 61
61 68 65 77 77 77 77 71 68 71 74 52 68 74 58 55 55 58 68 52 65 48 71 87 90 68 58 45 42 39 32 39 23 19 26 29 39 35 29 29 35 45 45
58 61 71 77 81 74 77 65 58 68 61 68 71 71 68 52 61 58 55 74 77 55 71 71 55 68 71 55 55 48 39 32 35 26 29 23 29 35 26 23 26 39 48
55 61 71 77 81 77 81 81 77 55 58 61 61 68 71 58 61 48 52 65 74 65 74 71 68 68 65 71 65 55 42 39 32 42 29 35 32 26 32 32 32 32 39
58 61 68 74 81 81 77 71 71 61 61 61 61 61 65 68 65 52 52 65 68 65 74 74 77 71 71 71 71 55 48 42 35 42 35 39 35 29 32 42 32 39 42

GEFSSE_con_cape1000_210.txt.gz
Probability
35 39 77 81 74 68 65 65 71 71 71 65 71 71 77 74 71 65 68 65 74 71 71 71 71 71 74 65 58 65 74 74 74 77 71 71 71 74 74 71 71 58 81
35 45 81 81 77 74 71 77 77 77 77 81 71 68 68 65 71 68 65 71 71 74 74 68 61 61 71 68 58 61 71 71 71 74 74 61 58 71 77 74 81 68 81
35 39 65 84 81 77 77 81 84 77 77 77 74 71 68 65 65 71 71 68 74 71 65 74 61 68 55 65 65 71 68 71 71 71 61 52 68 74 77 87 90 81 77
29 39 55 87 90 77 81 81 77 74 74 74 74 77 74 71 65 68 68 71 81 71 68 74 65 68 65 65 68 68 68 68 61 61 35 29 35 68 68 71 77 74 71
42 42 87 87 81 84 81 81 81 77 74 74 77 77 77 84 77 74 65 71 81 74 68 65 68 55 58 61 61 61 52 55 48 42 26 32 32 65 68 71 71 71 61
35 39 84 90 84 77 77 77 81 77 81 74 77 84 81 77 77 81 81 77 84 74 71 68 61 55 52 45 48 48 42 39 35 16 29 32 42 68 68 65 68 55 61
32 32 55 87 87 81 84 84 84 81 71 81 77 84 84 81 87 77 77 84 84 81 77 61 55 52 52 45 39 45 39 55 39 29 35 42 58 68 61 61 61 58 61
26 39 61 90 84 81 81 84 90 84 77 74 81 87 90 87 90 71 77 84 71 74 68 65 58 55 45 42 29 32 29 48 26 19 32 42 68 71 58 55 61 58 52
29 42 52 58 81 84 81 81 81 77 71 77 77 84 87 87 77 74 74 68 68 61 58 61 55 48 42 35 32 35 42 68 32 16 26 35 65 77 55 52 61 55 48
32 42 55 55 58 55 74 74 84 74 68 74 77 84 81 71 68 71 77 68 65 61 55 52 35 35 42 35 29 39 42 42 16 19 19 29 71 68 61 52 55 55 58
55 45 52 45 58 45 52 58 77 84 74 71 81 74 87 74 58 58 45 52 55 48 58 48 45 42 42 45 45 42 39 19 6 16 16 35 68 65 58 52 48 52 48
52 52 61 55 52 39 48 71 84 74 84 87 87 90 81 81 74 39 55 58 58 55 45 58 55 55 39 29 42 42 29 23 13 16 19 61 65 61 61 52 45 35 42
45 61 61 61 77 71 77 77 81 81 90 74 77 81 87 81 74 61 61 65 68 48 32 48 52 42 42 52 48 42 35 26 19 13 23 71 68 65 58 48 55 48 48
48 55 71 77 87 90 84 81 81 77 77 71 81 81 84 90 87 87 87 71 81 74 74 58 55 55 42 48 42 39 39 35 23 26 35 71 71 65 55 52 48 52 48
58 58 74 90 94 94 100 94 81 87 74 77 84 87 94 94 90 87 94 87 84 81 81 87 77 68 68 58 45 35 45 48 42 32 29 65 65 65 52 55 58 61 55
71 81 87 90 94 90 94 87 84 77 90 77 77 87 87 94 94 90 87 87 90 90 87 90 81 81 77 77 65 55 52 39 52 42 29 42 68 68 61 61 68 61 61
81 77 90 81 84 94 84 77 77 77 65 77 84 81 84 87 87 90 81 84 90 81 84 84 81 81 77 74 77 61 65 55 45 55 55 42 35 68 68 74 71 74 68
84 84 84 58 77 90 90 90 77 87 94 77 84 87 87 87 87 87 87 90 90 90 87 84 81 77 77 81 77 74 68 74 65 65 61 58 48 26 52 71 77 77 74
87 87 90 97 87 90 90 90 94 90 97 90 90 84 87 84 77 84 97 94 94 97 84 65 77 77 74 77 74 81 74 74 68 48 52 55 65 65 35 39 71 74 71
87 87 90 90 94 90 90 94 90 84 84 94 87 87 87 90 90 90 94 90 97 97 97 94 87 87 87 87 48 42 68 65 58 52 45 39 42 55 48 29 45 52 58
87 87 94 94 97 97 94 94 90 87 84 90 90 87 84 74 87 90 84 90 94 97 90 84 84 84 81 84 71 65 55 48 45 55 45 39 42 52 52 55 42 39 42
87 90 94 94 94 94 94 97 90 90 90 90 90 87 87 81 77 74 87 87 90 87 87 90 87 84 74 77 68 55 55 58 61 13 42 55 32 32 26 35 35 61 42
77 84 90 94 94 94 94 90 87 87 81 77 81 87 74 74 74 84 77 81 84 81 84 84 84 84 77 71 74 68 52 48 39 45 32 32 32 32 39 32 45 58 52
81 84 90 94 94 90 90 90 81 84 77 81 81 81 81 77 71 74 74 81 87 77 77 74 74 81 81 74 84 77 61 58 45 29 32 23 32 39 35 29 32 39 42
71 81 87 90 94 94 94 94 90 84 87 77 81 81 84 81 84 77 81 84 84 77 74 74 81 74 81 77 81 71 61 65 48 42 19 16 26 26 32 45 42 39 39
65 77 84 90 90 94 94 90 90 84 87 81 81 84 81 84 81 81 81 74 74 71 74 74 77 74 81 74 71 68 71 65 55 48 26 19 26 26 35 48 45 45 39

GEFSSE_con_cape1000_216.txt.gz
Probability
26 68 81 74 74 71 71 77 81 77 77 81 81 74 74 81 81 77 74 81 81 81 81 84 77 81 74 74 68 65 77 74 68 74 71 71 65 77 74 74 65 52 74
35 71 87 77 81 77 77 77 81 81 81 84 81 77 77 74 77 74 77 77 74 74 71 77 77 77 71 74 77 77 74 74 74 77 74 68 68 68 81 71 52 65 74
48 61 87 87 81 77 81 81 84 87 84 84 84 90 77 71 81 84 81 77 81 74 81 84 77 71 77 77 81 71 71 71 71 65 65 32 52 61 74 74 71 77 71
52 52 81 87 84 87 90 87 84 84 84 87 87 87 81 81 81 87 87 87 77 81 81 71 65 65 68 71 65 65 71 71 68 48 10 23 32 58 74 77 74 65 68
42 58 87 87 90 90 90 90 84 81 87 87 84 87 90 87 87 94 94 90 84 81 77 71 65 68 65 65 65 61 58 58 58 26 0 10 29 71 74 74 71 68 68
35 61 84 90 94 94 90 87 87 87 87 84 84 90 87 90 90 87 94 87 87 84 77 68 61 71 65 61 52 45 52 45 23 10 3 6 35 65 68 71 74 71 71
42 68 87 87 97 97 94 90 87 87 90 84 84 87 87 87 97 97 97 87 81 77 68 55 52 45 48 45 48 48 58 48 10 0 3 6 32 77 68 77 74 61 52
42 58 84 87 97 94 94 90 87 81 90 84 84 87 94 94 94 84 90 90 77 68 68 61 48 52 52 52 42 52 55 52 13 3 10 6 55 74 68 74 68 61 55
42 52 68 81 84 90 90 90 81 81 81 87 87 87 87 90 87 77 87 74 71 65 58 55 42 42 45 45 42 48 61 48 13 3 6 19 61 68 61 61 61 52 58
23 29 32 45 55 61 81 87 87 87 87 87 87 84 84 77 68 68 74 68 61 52 52 52 32 39 42 48 52 52 52 32 6 6 6 26 58 65 58 58 61 48 45
23 19 19 23 19 29 42 71 77 84 84 81 84 90 65 26 26 45 58 71 71 65 55 52 45 39 42 39 42 45 32 23 3 3 6 42 61 68 71 58 58 52 45
19 13 19 19 13 16 29 45 35 39 39 29 26 39 13 3 3 19 58 68 68 65 55 48 48 42 26 6 10 35 16 3 3 3 10 55 71 65 65 65 65 55 58
13 19 10 13 16 6 10 16 16 13 10 10 10 6 6 6 0 13 13 35 35 42 23 35 35 19 6 3 3 0 0 3 0 0 16 68 71 71 68 65 65 68 68
13 19 19 13 16 16 16 19 16 6 6 10 3 6 6 3 3 0 3 6 6 6 3 13 10 6 3 3 0 0 0 6 0 3 10 65 74 68 68 65 58 58 58
19 26 23 16 23 19 16 19 23 16 16 3 6 6 6 3 3 3 3 0 0 0 3 3 3 3 3 3 3 3 6 3 0 3 6 61 71 77 65 65 61 55 52
26 32 29 29 26 23 19 16 13 13 6 10 6 6 6 3 6 3 3 0 3 3 3 3 3 6 3 0 3 3 0 0 0 3 0 23 68 81 74 68 68 71 65
23 26 35 32 32 26 23 23 6 16 3 3 13 10 10 3 3 6 3 3 6 6 10 3 0 3 0 3 0 0 0 0 0 0 3 3 26 61 74 77 71 74 71
19 26 32 39 35 29 29 26 16 10 6 6 23 13 13 16 6 3 6 3 3 3 3 3 3 3 0 0 0 0 0 0 0 0 3 3 3 6 35 74 71 71 74
35 35 29 32 39 39 35 29 19 23 23 16 23 19 19 19 13 10 6 3 3 3 6 3 3 3 3 0 3 3 3 3 3 3 0 3 3 3 3 23 65 61 61
42 42 45 35 35 39 32 32 32 32 23 23 23 19 16 23 19 6 3 3 3 6 6 3 3 3 3 3 3 3 3 3 3 0 0 0 0 0 3 3 10 32 58
45 45 48 42 42 39 35 35 32 29 23 13 13 13 13 13 13 10 6 3 6 10 6 6 6 6 6 3 0 0 0 0 0 0 0 0 0 0 0 3 3 3 16
48 48 45 42 35 39 45 42 39 29 26 23 13 10 13 13 10 13 6 6 6 10 10 6 3 3 3 0 0 0 0 0 0 0 0 0 0 0 0 0 3 3 3
48 48 48 48 48 48 45 45 39 29 32 23 16 16 19 13 10 10 10 6 6 6 6 6 3 3 3 0 0 0 0 0 0 0 0 0 0 3 3 3 3 3 3
55 52 48 55 55 52 45 42 35 32 32 26 23 19 19 13 16 6 3 3 3 0 0 3 10 6 3 3 0 0 0 0 0 0 0 0 0 0 0 0 3 0 0
58 61 55 55 55 52 55 45 39 29 26 29 26 23 19 19 16 16 6 10 6 3 0 3 6 10 3 3 3 0 0 0 0 0 0 0 0 0 0 0 0 3 3
55 58 55 58 55 58 52 48 45 35 35 35 29 13 19 26 26 19 16 16 13 10 6 3 6 13 13 10 6 6 0 0 0 0 0 0 0 0 0 0 0 0 0

GEFSSE_con_cape1000_222.txt.gz
Probability
16 32 58 74 71 74 77 71 81 81 84 84 84 81 81 81 87 84 81 84 77 81 84 77 74 81 74 71 71 68 71 74 74 71 68 68 68 71 71 71 65 61 77
23 45 81 81 71 71 74 74 74 77 87 81 77 77 84 84 87 84 84 84 77 81 84 74 74 77 77 74 71 68 74 74 81 71 74 65 65 65 71 68 55 58 68
39 55 68 84 77 71 77 74 87 81 87 90 81 84 87 90 90 81 84 84 84 81 74 74 84 77 84 81 61 65 77 81 81 71 65 48 52 61 55 58 55 68 68
45 55 68 77 77 68 71 81 84 87 81 87 84 84 84 87 90 77 81 84 74 77 71 74 74 74 65 68 65 65 68 71 61 58 26 35 39 61 68 65 65 68 71
39 45 68 77 81 74 74 84 87 81 84 87 74 77 81 87 87 84 81 77 74 68 74 77 77 77 74 71 68 71 68 61 48 32 19 26 42 68 71 61 71 71 68
35 45 71 84 81 81 81 77 81 77 74 81 81 81 84 87 90 87 84 74 74 68 71 77 71 65 68 65 65 65 61 55 26 16 16 26 42 74 68 65 61 61 65
32 39 61 84 87 87 84 81 74 74 77 77 81 81 90 90 90 81 81 81 68 71 71 74 71 52 48 42 52 52 52 42 6 6 16 23 39 71 68 74 77 74 68
35 42 61 81 84 87 81 71 71 71 71 71 84 84 84 87 81 81 74 77 65 71 65 61 55 52 55 55 45 52 45 39 13 10 16 19 55 61 77 77 77 68 61
32 29 39 52 55 77 81 77 81 74 74 74 81 81 81 71 81 81 77 68 58 68 65 58 55 48 52 52 52 48 42 35 6 3 3 13 55 68 71 68 68 58 55
16 23 32 39 45 45 61 74 81 81 81 81 77 81 77 65 55 65 74 71 48 52 45 42 48 42 48 45 48 52 45 32 6 6 10 13 55 55 48 58 52 61 61
16 13 10 16 19 29 45 61 65 71 74 68 61 74 55 29 32 42 58 58 45 45 45 48 48 45 52 48 61 55 32 16 10 6 13 26 48 55 55 52 58 65 58
10 10 10 13 10 16 26 35 39 39 26 35 29 26 19 3 0 29 58 65 58 45 48 45 39 32 26 16 19 23 10 6 3 6 16 39 58 52 52 58 58 61 58
6 6 6 3 6 6 10 13 13 10 10 6 0 0 0 0 0 3 6 26 29 39 19 23 23 19 13 13 10 6 10 3 3 3 19 45 55 55 55 58 58 65 61
6 6 6 3 3 3 3 6 0 3 3 0 0 0 0 0 0 0 0 3 10 13 13 13 6 10 6 6 6 10 3 10 6 6 23 39 55 61 58 58 65 65 65
6 10 10 6 3 0 3 3 3 0 0 0 0 0 0 0 0 0 0 0 0 3 3 3 3 6 3 3 6 6 6 6 6 6 13 32 58 61 52 61 65 61 58
6 10 6 6 0 0 0 0 3 0 0 0 0 0 3 0 0 0 0 0 0 0 0 3 0 0 0 6 3 10 10 6 6 3 10 13 48 68 55 61 65 55 52
3 6 0 0 0 0 0 0 3 0 0 0 0 0 3 0 0 0 0 0 0 0 3 3 3 0 0 0 3 3 3 6 6 6 10 10 16 45 71 71 71 68 58
3 6 3 10 3 0 0 0 0 0 0 0 0 3 6 0 0 0 0 0 0 0 0 3 3 3 0 0 3 0 0 6 6 6 6 6 6 13 39 68 74 74 74
6 6 6 6 3 0 0 0 3 3 3 3 3 6 6 3 3 3 3 3 3 3 6 6 6 3 3 3 0 0 0 0 3 3 10 3 3 3 6 32 61 68 61
6 6 6 10 10 0 3 3 6 0 0 0 3 3 10 6 3 3 3 3 0 0 0 0 6 6 0 0 0 0 0 0 0 0 0 0 3 3 0 0 13 32 45
6 6 6 10 6 3 3 3 6 3 6 6 3 6 6 6 10 3 3 0 0 0 0 0 0 0 0 0 0 0 0 0 0 0 0 3 6 3 6 3 6 6 13
16 10 10 13 13 6 6 6 6 6 10 6 6 3 3 6 6 10 6 0 0 0 0 0 0 0 0 0 0 0 0 0 0 0 0 0 0 3 3 6 10 10 6
13 16 19 13 13 13 10 10 10 6 6 6 6 6 6 10 6 6 6 3 0 0 0 0 0 0 0 0 0 0 0 0 0 0 0 0 0 0 0 3 3 10 16
19 19 19 19 16 16 16 19 16 13 13 10 6 6 10 6 10 6 6 3 3 0 0 0 0 0 0 0 0 0 0 0 0 0 0 0 0 0 0 0 0 10 10
26 23 26 16 16 16 16 16 16 13 10 6 6 3 3 6 3 6 3 3 3 3 3 3 0 0 0 0 0 0 0 0 0 0 0 0 0 3 0 0 3 3 3
23 32 26 23 29 19 23 23 16 16 13 13 6 6 3 3 3 10 6 3 3 0 0 3 3 0 0 3 3 3 3 0 0 0 0 0 0 3 0 0 0 3 3

GEFSSE_con_cape1000_228.txt.gz
Probability
10 19 45 58 65 74 77 77 81 81 84 74 71 71 81 84 74 74 71 71 74 71 71 68 65 68 74 71 74 61 71 65 65 65 68 74 68 68 74 68 65 42 81
10 23 48 61 68 71 81 77 87 84 84 84 84 81 77 84 74 71 68 68 65 71 65 71 55 65 65 74 65 65 71 71 68 68 68 68 61 58 65 55 71 74 81
10 26 32 55 65 68 74 81 84 81 77 81 81 84 74 77 77 74 61 61 65 71 58 61 55 68 71 68 65 58 52 68 65 55 52 48 52 55 55 61 71 71 77
16 26 32 61 65 68 77 84 90 87 84 77 77 77 77 77 87 81 68 65 61 65 65 61 61 74 71 65 61 65 61 55 55 52 26 23 26 39 61 68 71 68 71
16 29 55 58 61 68 71 81 87 81 81 81 77 77 74 77 81 81 81 68 71 61 58 61 65 68 61 65 61 55 52 52 35 32 13 23 42 61 52 55 61 65 61
19 29 39 65 61 61 65 71 81 84 81 81 81 77 77 77 81 77 68 65 68 74 71 65 68 68 65 61 61 42 42 42 26 3 10 16 42 68 61 52 52 55 58
13 23 42 65 58 68 71 74 74 74 77 74 84 77 74 71 74 74 61 65 65 65 68 61 61 52 48 55 48 39 39 32 16 10 13 19 45 55 55 48 58 61 65
13 23 39 61 55 68 71 65 74 68 68 74 74 68 71 68 77 71 58 65 68 61 61 52 45 42 35 45 42 35 42 35 6 3 16 23 45 55 42 45 65 55 48
13 19 35 29 48 58 65 65 68 68 71 77 84 77 71 65 68 68 74 65 58 55 61 55 48 42 39 42 35 35 32 23 6 10 3 23 48 45 45 45 55 52 52
16 13 29 35 42 45 39 65 68 68 68 74 74 68 71 61 61 55 58 65 65 58 52 48 42 35 32 26 32 16 26 26 3 10 19 26 55 42 48 58 48 52 45
13 29 32 26 39 39 32 45 68 71 68 71 68 68 68 42 26 48 42 58 61 48 52 42 42 39 35 32 35 39 32 16 13 10 19 39 52 45 35 55 58 52 48
19 32 29 29 32 42 23 55 74 52 65 61 61 52 65 55 48 29 48 58 52 52 48 39 39 26 23 32 29 29 23 16 19 23 32 45 45 39 48 55 61 58 52
26 32 35 32 48 52 48 52 68 68 68 55 48 52 71 55 55 35 58 58 58 48 26 29 26 26 23 19 26 13 19 19 26 19 32 32 48 45 48 58 58 48 55
29 29 42 42 52 58 48 58 55 48 45 42 61 52 55 61 58 55 68 48 48 48 35 29 32 29 29 26 26 23 23 29 29 23 48 35 42 55 52 55 52 58 58
23 35 35 48 68 74 68 61 32 55 45 48 68 61 55 45 61 42 61 65 32 29 32 45 45 52 42 32 26 23 23 29 19 26 35 42 32 42 42 48 48 55 55
39 29 39 55 71 68 68 65 52 39 58 48 55 48 61 55 61 52 55 52 39 39 29 39 42 45 42 35 26 23 32 26 29 32 29 42 42 45 52 55 48 58 58
48 58 58 58 65 71 55 42 45 45 45 55 68 68 55 45 61 52 48 45 39 39 45 45 35 42 45 39 39 29 35 39 39 42 42 48 48 52 61 55 65 71 65
45 65 61 32 55 68 71 74 58 52 61 58 65 68 65 61 65 68 52 52 52 35 39 55 48 48 48 42 48 39 42 61 55 52 42 48 55 42 61 58 61 65 61
58 71 71 65 68 65 71 71 58 81 77 65 68 61 68 61 61 55 65 71 61 55 42 35 42 42 42 55 45 61 52 45 48 29 29 32 48 58 55 55 52 65 58
68 77 71 81 74 68 74 81 74 81 71 71 74 74 74 74 68 55 52 58 42 58 42 45 55 71 61 74 19 16 39 39 35 35 32 19 35 35 35 45 55 45 52
71 81 81 87 87 84 71 74 77 71 74 71 71 71 77 77 71 61 58 65 61 58 71 45 48 48 42 52 35 39 26 23 29 45 42 35 26 29 35 42 48 48 52
68 81 81 81 81 84 81 81 81 81 65 61 65 74 68 58 61 42 65 55 68 68 68 68 65 42 35 48 48 42 32 32 45 10 35 29 23 32 26 19 39 48 52
61 61 58 81 84 84 84 84 84 84 71 58 71 68 61 58 52 55 52 58 58 55 65 74 68 55 48 58 45 39 29 26 29 23 32 23 35 29 26 29 32 35 45
55 58 68 81 81 84 81 77 74 74 68 68 74 71 68 61 58 45 52 52 55 52 71 68 55 65 68 65 52 58 45 26 26 26 29 23 26 35 26 19 13 32 35
52 55 68 77 77 84 84 81 81 71 74 74 77 71 71 61 58 48 58 58 65 61 65 65 61 61 65 58 48 48 52 52 29 39 26 29 26 19 29 39 39 32 42
55 55 68 74 77 81 81 74 77 77 77 81 77 71 65 65 65 61 58 65 71 68 61 61 65 61 65 65 52 52 45 52 48 32 39 39 26 32 35 42 35 39 42

GEFSSE_con_cape1000_234.txt.gz
Probability
23 29 68 71 77 77 68 65 65 65 61 68 71 71 58 58 58 58 61 68 61 68 61 65 61 61 65 68 74 71 65 65 65 71 71 71 71 74 68 71 68 45 77
19 29 71 74 77 77 68 68 74 68 61 74 68 71 61 55 58 55 58 61 61 58 61 58 61 61 71 71 68 74 58 61 61 68 65 58 65 71 68 68 68 48 77
16 26 45 71 74 77 77 77 74 81 74 74 74 81 74 61 58 58 61 68 65 65 52 55 55 55 55 58 61 61 55 58 52 58 55 39 45 68 68 71 77 68 71
19 29 48 71 71 77 81 81 77 87 74 74 74 77 81 74 65 65 65 68 71 65 55 58 58 55 55 52 52 52 55 55 58 48 26 16 19 45 61 68 68 65 58
26 39 61 68 77 84 84 84 84 84 84 81 71 77 77 65 65 61 58 65 55 61 65 55 58 48 48 48 48 52 55 55 45 35 13 13 26 48 55 55 55 52 48
29 39 55 81 81 84 81 81 81 74 74 77 77 77 65 61 55 65 65 61 58 61 65 58 52 55 42 42 45 35 39 45 32 13 19 26 29 52 55 58 52 48 39
26 29 42 74 84 77 71 68 68 65 65 71 65 61 68 61 61 61 58 61 55 65 68 58 55 48 42 39 39 29 35 35 26 16 29 42 52 61 48 45 45 42 35
26 29 45 71 77 81 65 65 61 61 58 55 65 61 61 71 65 58 58 58 58 55 58 55 45 45 39 42 32 32 39 39 16 3 26 29 55 65 58 55 48 42 39
26 29 39 42 68 65 71 71 58 58 58 52 52 55 58 65 61 61 61 52 52 52 52 52 35 48 42 39 39 39 45 58 29 10 10 16 58 55 52 48 48 42 42
26 32 35 35 32 39 61 71 65 61 48 61 52 55 61 58 61 61 58 58 55 42 42 29 32 29 32 26 32 35 48 58 19 10 13 29 68 55 55 55 52 45 45
35 42 32 32 42 39 35 55 68 71 65 68 65 61 74 65 45 55 52 68 52 48 42 35 29 29 32 29 32 48 55 19 13 10 19 42 68 61 58 61 55 52 48
39 42 52 48 42 45 39 65 74 58 71 71 81 84 77 84 61 45 55 65 52 39 39 39 42 42 32 23 23 48 19 23 10 16 23 61 71 74 58 58 65 55 52
35 52 52 52 61 58 68 68 74 77 87 65 81 90 84 71 68 45 48 52 58 32 35 42 39 19 19 23 39 26 26 19 29 19 23 71 71 77 58 55 58 58 61
29 32 52 65 77 84 87 77 74 71 77 74 87 84 84 84 77 71 71 68 58 58 58 39 48 35 32 42 39 39 32 32 26 29 26 65 68 74 61 58 55 58 58
39 45 68 81 84 87 90 87 68 81 71 77 87 87 84 84 81 81 81 81 68 68 68 68 61 58 52 52 45 32 32 42 35 39 35 65 68 68 65 65 55 55 58
61 74 81 81 87 90 90 90 87 65 84 68 87 81 81 87 87 87 84 84 81 74 61 65 68 65 52 61 55 48 42 45 52 45 35 45 61 68 74 65 52 55 52
71 87 87 81 84 94 87 77 74 77 61 81 90 84 84 87 90 94 87 84 84 77 77 81 71 65 65 55 48 42 48 52 55 58 48 29 32 55 71 68 65 68 58
81 84 87 61 81 90 94 94 74 81 84 90 87 87 90 90 87 94 90 81 81 71 74 77 71 81 68 65 65 55 48 71 71 68 61 55 48 32 52 77 74 68 65
81 81 94 84 84 90 94 97 90 94 94 94 90 94 87 81 84 90 87 90 84 77 71 48 71 71 71 71 61 71 68 65 65 48 48 42 52 58 48 58 81 74 68
84 90 94 90 94 94 90 90 87 87 94 90 94 94 87 84 84 87 87 87 87 87 87 81 81 77 71 71 35 42 68 74 65 61 45 48 48 52 61 42 48 42 65
87 94 94 94 94 94 94 87 87 87 90 87 90 94 77 77 77 87 74 84 84 87 87 74 77 68 71 65 61 61 68 58 61 58 58 55 39 48 52 52 45 35 26
84 90 94 94 94 97 97 94 87 90 87 84 81 90 81 81 74 68 81 74 71 74 77 84 84 77 71 71 61 55 58 42 45 29 45 58 42 48 42 32 48 48 29
71 90 81 94 94 87 87 87 94 94 90 90 90 94 87 81 74 81 71 68 74 74 74 81 84 74 68 58 52 58 45 39 42 45 35 35 45 48 48 45 35 42 35
74 74 94 94 94 90 90 84 84 87 90 94 94 90 84 77 71 68 77 71 77 77 81 77 77 77 74 55 61 65 52 52 42 29 39 42 45 42 42 26 29 42 42
65 77 87 94 87 87 87 87 90 90 94 90 87 87 87 84 81 74 74 77 84 81 77 81 77 77 74 68 61 61 58 58 55 48 32 35 42 42 48 35 39 39 35
65 77 74 84 84 87 87 90 87 87 94 87 87 87 90 87 84 84 84 84 84 81 77 81 81 74 77 77 68 65 68 55 58 55 39 42 39 39 35 39 42 42 35

GEFSSE_con_cape1000_240.txt.gz
Probability
32 48 74 77 74 71 68 84 87 84 84 74 74 74 74 71 71 71 74 68 71 71 68 68 68 68 74 71 77 74 74 71 65 65 77 77 74 71 74 81 61 52 77
32 55 81 84 81 81 71 84 84 77 74 68 71 71 74 71 71 71 68 65 71 68 71 74 65 61 68 74 71 74 71 68 74 74 68 58 68 71 77 71 58 55 71
35 39 71 94 90 87 87 84 87 77 77 81 81 74 68 68 61 61 61 61 61 65 65 61 58 61 65 71 65 71 68 68 61 65 61 42 52 68 71 71 71 61 61
32 35 55 94 84 87 87 87 87 84 74 74 81 77 68 71 74 68 68 65 61 61 58 58 58 58 61 65 61 58 55 55 58 42 10 13 29 65 74 71 68 61 61
26 32 58 87 77 84 87 87 81 81 77 74 77 74 77 74 68 68 65 71 61 65 61 61 58 55 61 55 55 48 55 45 39 19 3 6 19 58 65 65 71 58 61
29 39 68 90 81 77 81 84 84 81 77 77 74 77 74 68 68 68 61 65 65 68 61 61 55 58 58 55 48 42 45 39 19 3 3 10 19 65 61 58 61 55 55
29 35 65 90 87 81 81 84 81 84 74 74 74 74 77 71 65 68 65 61 68 61 68 68 58 48 45 42 35 39 42 32 13 6 3 16 19 58 58 58 55 52 52
32 35 55 87 84 87 87 84 77 77 77 77 71 71 71 71 68 65 61 58 71 58 65 65 55 45 52 42 35 45 45 45 16 10 3 16 32 65 52 52 45 42 35
29 29 35 55 74 81 84 81 77 77 77 81 77 77 74 65 68 71 68 65 61 65 55 58 48 39 48 42 42 42 45 42 13 3 6 10 32 65 45 52 42 52 42
23 23 16 26 39 52 65 77 77 74 77 87 84 74 74 65 61 65 68 74 58 61 55 42 39 35 42 42 39 39 39 35 6 3 10 10 58 58 52 42 45 58 42
16 16 19 19 19 19 29 58 65 68 71 71 71 81 61 29 32 42 55 65 48 32 35 35 32 39 32 42 42 48 42 16 3 6 6 19 65 65 58 52 42 42 52
13 16 13 16 16 13 19 26 23 23 23 23 26 35 19 10 6 23 45 68 48 35 35 42 45 52 23 13 13 23 16 6 0 0 6 32 65 61 65 52 55 52 48
10 19 6 10 13 13 6 16 10 10 6 6 6 10 6 0 6 3 6 26 23 23 16 23 29 13 13 6 6 6 6 6 0 0 13 58 71 65 61 61 61 55 52
10 19 16 6 10 6 13 13 10 19 6 10 10 6 3 3 3 3 3 3 6 3 0 3 3 6 3 0 6 6 6 0 0 3 6 65 68 68 65 61 65 52 52
16 16 16 13 10 3 6 10 13 16 10 6 6 3 3 3 3 3 3 10 6 3 3 3 3 3 3 6 10 3 0 0 0 0 3 52 71 65 65 58 55 55 45
16 6 13 19 13 3 3 3 6 3 3 3 6 0 6 3 3 6 6 3 0 0 0 0 0 3 3 6 6 6 3 3 0 0 0 16 71 74 77 65 61 61 61
13 16 19 19 23 23 16 10 16 0 3 3 10 10 10 6 6 3 3 3 3 3 6 3 3 3 0 3 3 3 6 3 6 6 0 0 13 52 71 74 77 68 58
10 13 16 35 19 23 19 19 19 19 10 13 13 16 10 3 3 3 3 0 0 6 3 0 0 0 0 0 0 0 0 3 10 0 0 0 0 3 39 74 74 71 74
10 6 16 29 35 32 26 23 19 19 19 16 13 13 16 10 6 0 0 0 0 0 0 0 0 0 0 3 0 0 0 0 0 0 0 0 0 0 3 19 71 77 74
13 16 23 29 26 29 26 26 29 29 23 23 13 13 16 13 6 6 6 3 3 3 0 3 3 0 0 0 0 0 0 0 0 0 0 0 0 0 3 6 13 32 65
26 19 23 32 29 32 32 29 32 26 26 19 19 16 16 19 16 10 10 6 3 3 3 6 3 3 0 0 0 0 0 0 0 0 0 0 0 0 6 6 0 0 6
29 26 32 42 45 45 35 39 42 29 32 26 23 19 16 23 19 19 10 6 6 6 3 6 6 0 0 0 0 0 0 0 0 0 0 0 0 0 0 10 3 3 3
26 39 48 32 48 45 45 39 32 32 32 29 32 19 19 26 19 19 13 10 10 3 3 3 6 6 0 0 0 3 0 0 0 0 0 0 0 0 0 0 6 6 3
39 35 29 35 48 45 42 39 39 35 35 35 26 26 23 32 32 29 23 16 16 6 6 3 3 3 0 0 0 0 0 0 0 0 0 0 0 0 0 3 0 0 6
42 45 39 42 42 42 39 42 39 42 39 39 39 35 23 29 32 32 26 16 13 10 6 0 3 3 3 0 0 0 0 0 0 0 0 0 0 0 0 0 0 0 0
45 52 45 52 48 42 48 42 39 42 39 39 29 26 26 32 32 32 23 16 13 10 16 3 3 6 6 0 0 0 0 0 0 0 0 0 0 0 0 0 0 0 0

GEFSSE_con_cape1000_246.txt.gz
Probability
3 16 68 71 68 77 68 74 74 71 68 65 65 71 71 71 74 81 71 71 71 71 74 71 74 81 77 81 81 71 68 71 71 61 68 74 77 77 71 74 58 42 65
10 32 65 68 71 68 71 65 77 74 71 68 68 68 68 61 65 68 71 71 68 71 68 71 71 74 65 68 71 71 68 71 68 65 65 68 68 74 68 65 52 45 61
23 35 58 65 71 77 81 77 77 71 71 68 65 61 65 58 68 71 71 65 65 68 68 68 68 74 68 71 74 74 71 65 61 65 58 42 52 71 71 61 55 55 52
23 35 48 71 77 74 84 77 77 74 74 74 74 61 61 65 58 61 58 58 61 68 68 58 61 68 71 74 77 74 71 61 61 48 29 32 42 61 68 71 61 52 48
19 26 45 71 71 84 77 84 81 74 68 65 65 74 65 65 58 61 58 55 58 68 68 65 61 61 68 68 65 58 55 48 42 19 13 19 32 65 65 61 61 61 52
23 35 42 68 68 77 77 74 74 71 71 68 71 65 65 61 61 58 58 65 65 65 65 61 58 58 61 58 61 55 48 39 26 6 6 13 32 58 58 58 61 61 58
26 39 42 71 71 71 74 74 77 74 81 65 68 65 58 61 58 61 65 61 61 58 65 61 61 58 55 52 58 48 52 29 6 6 6 16 29 52 48 55 55 52 48
32 29 42 61 68 74 74 81 77 68 71 74 68 68 61 65 65 65 61 61 52 55 61 48 55 45 42 39 42 39 45 39 13 10 13 19 32 52 48 55 48 39 39
32 26 32 39 52 71 77 74 77 77 74 74 71 71 68 65 68 68 74 65 58 55 55 39 35 45 42 35 45 52 48 39 16 16 13 16 29 48 45 45 48 42 48
19 19 19 32 39 45 45 68 77 74 74 74 71 71 65 61 52 65 74 65 55 48 42 32 29 42 39 39 39 42 45 35 6 16 13 13 26 45 42 42 45 42 39
19 16 16 19 19 23 35 52 55 65 68 65 65 68 52 19 19 39 42 55 42 39 32 29 32 39 35 35 29 29 26 13 10 3 6 19 26 35 52 52 52 48 35
13 16 13 13 16 16 29 23 23 23 26 19 23 26 16 13 10 19 39 42 32 39 39 39 39 35 32 16 23 19 16 13 10 6 6 29 39 39 55 55 58 52 39
6 10 13 13 10 10 10 13 10 10 10 10 13 10 6 6 6 10 6 10 10 23 16 19 23 23 16 10 13 6 10 13 10 10 19 32 39 45 52 58 61 61 45
6 6 6 10 6 10 6 10 10 10 10 10 6 6 3 3 0 0 0 0 0 0 6 10 3 6 6 6 3 3 3 3 0 6 13 19 48 58 58 55 58 55 55
3 6 3 3 3 6 3 3 6 6 10 6 3 0 0 0 0 3 3 0 0 0 0 0 0 3 3 3 3 3 6 6 10 6 10 16 42 58 55 42 45 52 48
3 0 0 0 0 0 0 0 0 3 3 0 0 0 3 0 3 3 0 0 0 0 0 0 0 0 0 0 3 6 6 6 10 10 6 19 35 55 58 48 52 52 52
0 0 0 0 3 0 0 0 0 0 0 0 0 3 3 3 3 0 0 0 0 0 0 0 3 0 0 0 0 0 6 6 6 6 3 6 19 29 58 61 55 45 52
3 3 0 0 3 0 0 3 3 0 0 3 3 3 6 3 0 0 0 0 0 0 0 0 0 0 0 0 0 0 0 3 3 0 0 0 6 13 32 45 48 45 55
3 6 6 3 0 0 0 6 6 10 6 3 3 3 3 3 3 0 0 0 0 0 0 0 3 0 0 0 0 0 0 0 0 0 0 0 0 6 10 16 42 52 39
3 6 6 3 0 0 3 6 6 10 10 6 3 3 3 6 3 0 0 0 0 3 3 3 0 0 0 0 0 0 0 0 0 0 0 0 3 0 3 6 10 23 32
6 6 6 6 3 3 6 6 13 13 10 6 6 6 10 3 3 3 3 3 3 3 3 3 0 0 0 0 0 0 0 0 0 0 0 0 3 0 6 3 6 6 6
6 6 3 3 3 6 3 6 6 13 13 10 13 6 10 13 6 6 3 3 3 3 3 0 0 0 3 0 0 0 0 0 0 0 0 0 0 0 0 0 6 10 6
3 10 10 3 6 3 13 10 19 19 16 16 19 13 10 6 6 3 3 3 3 3 0 0 0 0 3 3 0 0 3 3 0 0 0 0 0 0 0 0 0 10 6
3 6 6 6 6 13 19 13 19 23 29 19 10 13 16 10 10 6 10 6 0 0 0 0 0 0 0 0 0 0 0 0 3 0 0 0 0 0 0 0 0 3 10
10 6 6 6 6 10 19 19 16 19 16 10 10 10 10 16 19 13 13 3 3 3 0 0 0 0 0 0 0 0 0 0 0 0 0 0 0 0 0 0 0 0 3
6 6 13 10 10 6 19 23 26 26 19 13 10 10 13 16 13 10 10 10 6 6 6 6 0 0 3 0 0 0 0 0 0 0 0 0 0 0 0 0 0 0 0